[Date Prev][Date Next][Thread Prev][Thread Next] - [Date Index][Thread Index][Author Index]

2 Line ISS Keps 12-18



ISS 
1 25544U 98067A   04352.86069602  .00018583  00000-0  14669-3 0  3854
2 25544  51.6387 108.1786 0004441 114.3087 337.8972 15.71446528347174
----
Via the sarex mailing list at AMSAT.ORG courtesy of AMSAT-NA.
To unsubscribe, send "unsubscribe sarex" to Majordomo@amsat.org



AMSAT Top AMSAT Home